User: anonymous   Login
Location: Unspecified
(0.0000°N, 0.0000°E)
Time: 08:16:12
(UTC+00:00)
Language:

ELECTRON R/B - Orbit

View from above orbital plane
View from above orbital plane
View from above satellite
View from above satellite

Ground track
Ground track

The orbit data is extracted from the following two-line orbital elements,

1 43166U 18010D   18054.59029461 +.00025768 -10679-5 +20205-3 0  9993
2 43166 082.9192 106.3387 0166894 099.3604 262.6657 15.54877475005200
Epoch (UTC): 23 February 2018 14:10:01
Eccentricity: 0.0166894
inclination: 82.9192°
perigee height: 289 km
apogee height: 515 km
right ascension of ascending node: 106.3387°
argument of perigee: 99.3604°
revolutions per day: 15.54877475
mean anomaly at epoch: 262.6657°
orbit number at epoch: 520

The dashed part of the orbit path shows where the satellite is in the earth's shadow,  

DLR